Wind_Speed
31 30 16 23 15 9 15 11 6 1 6 9 8 17 20 17 14 13 13 12 12 13 12 13 14 15 16 16 15 12 13 12 11 10 12 12 14 14 14 13 13 13 15
25 22 19 11 13 11 17 16 14 15 18 18 15 13 12 11 11 11 11 11 12 12 12 12 13 15 15 13 13 13 11 10 11 12 14 15 14 15 15 15 13 12 12
14 15 18 13 13 6 19 22 21 22 21 15 12 12 12 11 12 11 12 12 12 11 12 11 11 10 11 13 12 12 11 12 13 13 15 16 15 15 15 14 12 13 13
18 17 12 13 11 18 22 23 23 19 15 12 13 13 11 11 11 11 11 12 12 12 11 11 11 11 11 12 14 15 16 15 16 14 12 13 12 14 12 13 13 15 16
15 12 12 12 17 20 18 19 14 13 12 12 11 11 10 11 11 11 11 12 13 12 12 12 12 12 12 13 14 15 15 14 13 9 9 10 9 9 11 11 12 13 14
11 15 15 12 12 11 11 11 13 14 13 12 11 12 11 12 11 12 13 13 13 12 12 11 11 12 12 11 12 11 10 11 10 10 10 10 12 13 13 12 13 15 16
9 8 5 7 10 11 12 14 14 15 13 12 12 12 12 13 14 15 14 14 13 12 11 10 10 12 11 9 9 10 9 10 11 12 11 10 11 11 13 14 16 17 18
17 14 12 11 11 12 13 13 14 13 13 14 15 15 16 16 15 14 14 13 13 12 11 10 10 10 9 10 9 9 11 11 12 13 11 11 12 13 16 17 17 19 19
10 11 12 9 10 11 11 12 13 14 15 16 16 16 16 14 13 13 13 13 13 10 8 9 9 9 7 7 8 9 9 11 13 11 11 10 10 11 16 21 21 25 28
11 10 10 9 10 10 11 13 14 15 16 17 16 15 15 14 12 11 12 12 11 11 9 9 8 8 7 6 6 6 7 11 10 11 10 12 16 19 23 28 27 28 30
13 9 8 7 8 10 10 11 12 12 13 13 13 14 12 12 12 12 12 13 12 10 10 9 9 8 8 8 7 7 8 12 12 14 17 20 24 25 28 32 36 31 33
9 8 7 7 9 9 8 9 10 10 10 11 12 13 12 12 13 12 12 11 10 9 9 10 11 10 10 10 9 9 11 15 17 20 22 24 25 29 32 35 36 38 37
8 7 7 7 7 8 8 9 9 9 12 14 15 15 13 12 12 11 10 10 10 10 11 11 11 11 11 11 13 15 19 22 24 27 30 32 33 35 38 38 37 37 39
7 7 6 6 8 7 7 7 9 10 12 13 12 12 12 13 13 12 13 12 12 11 11 11 10 11 14 15 18 21 24 28 31 34 36 36 36 37 38 33 33 33 34
8 8 7 7 8 8 7 9 11 12 13 12 13 13 13 13 13 16 15 13 12 12 10 10 12 14 16 19 22 25 30 35 35 33 33 34 34 34 35 33 35 34 36
9 7 7 8 8 9 10 11 13 14 15 16 16 17 17 17 18 18 17 15 13 12 10 11 14 17 19 20 25 31 33 32 35 33 33 33 33 34 32 32 33 35 36
12 10 10 11 11 11 10 13 13 15 16 16 17 19 19 17 18 19 18 15 14 12 13 16 19 22 24 24 28 31 32 32 32 31 31 30 28 29 31 32 33 33 32
18 16 15 15 14 16 13 14 12 14 15 14 15 17 18 16 17 18 16 15 15 15 17 21 24 25 26 28 30 29 33 33 34 31 29 28 30 32 31 32 30 26 25
20 21 19 19 17 18 16 14 14 14 14 14 12 15 12 13 15 16 18 18 18 20 23 25 25 28 29 30 29 33 37 35 32 30 30 32 31 32 33 31 30 28 29
20 22 19 17 21 22 19 21 21 16 18 16 15 14 18 18 17 17 19 22 23 24 26 29 33 34 35 35 35 36 40 35 33 31 32 33 34 35 34 32 30 30 34
18 18 19 22 22 25 23 25 23 19 16 18 19 19 24 25 24 25 25 27 26 28 32 34 36 40 36 35 37 40 39 34 33 34 34 35 35 37 37 35 32 32 33
19 22 26 24 22 25 25 21 19 21 18 22 21 21 26 25 27 26 26 25 29 32 29 31 32 29 32 36 39 41 39 35 36 35 32 34 37 38 39 36 33 33 33
17 20 22 26 29 23 23 25 17 22 21 21 20 19 20 22 22 24 27 29 30 32 33 33 30 30 36 40 39 45 44 39 38 37 38 39 40 38 36 36 34 35 33
16 18 18 19 20 22 29 21 20 24 21 19 18 18 19 20 22 24 27 27 28 30 36 38 39 42 42 43 46 45 47 43 42 41 43 46 43 39 36 32 34 33 31
23 19 21 22 23 24 26 26 23 21 19 19 20 20 22 23 25 28 29 28 30 32 33 35 38 40 42 45 46 47 49 49 49 49 49 51 46 39 34 35 32 26 25
25 24 21 19 20 20 19 18 22 20 19 20 22 24 23 26 27 28 30 30 30 34 37 41 41 40 39 41 43 46 52 54 52 54 54 52 43 41 34 26 25 25 27
Wind_Direction
254 259 258 314 305 338 267 270 287 165 269 253 237 251 258 250 237 244 247 249 251 254 260 260 263 264 269 276 271 281 275 268 273 281 284 287 288 289 289 290 289 288 287
243 253 255 269 267 294 277 245 268 272 276 277 271 235 225 234 248 249 251 254 260 267 269 270 267 267 267 270 273 269 271 272 278 286 293 294 291 292 293 293 297 298 301
242 252 264 250 242 271 283 266 267 274 270 255 228 223 228 241 243 245 253 263 266 269 270 269 266 263 257 261 265 266 270 278 282 281 283 284 288 288 294 297 303 304 305
241 238 236 245 248 252 259 271 263 258 232 226 223 227 238 236 238 245 249 250 254 260 264 265 264 259 256 260 267 276 281 282 277 274 281 290 293 291 297 307 318 316 312
219 233 265 260 259 260 259 248 234 238 236 229 230 235 235 239 243 245 247 253 256 258 259 261 263 269 275 274 273 275 281 279 280 288 284 278 282 285 284 288 293 302 307
218 245 250 258 245 243 230 230 233 238 237 237 232 235 241 248 251 255 260 264 265 263 262 264 269 268 266 269 270 274 270 271 273 274 261 260 275 291 296 301 303 303 302
185 190 243 239 238 240 238 236 233 236 237 240 244 251 256 260 267 267 262 259 257 257 256 255 254 255 255 264 270 271 272 270 270 269 269 274 281 289 287 294 301 305 306
247 245 253 237 230 228 234 241 237 234 234 239 242 245 250 257 257 251 249 248 250 249 243 238 247 264 270 271 275 273 265 265 268 272 276 271 278 288 297 300 304 304 306
194 209 222 220 223 225 227 235 238 239 240 242 245 247 249 244 243 241 239 241 243 247 254 256 258 260 260 259 260 263 269 266 273 280 288 286 288 297 305 306 309 306 310
247 220 226 213 219 233 245 249 248 248 247 245 243 238 231 234 235 240 239 241 246 249 248 254 258 265 271 267 270 277 276 278 288 294 297 292 298 304 307 309 307 304 309
237 232 226 224 239 246 242 242 242 240 238 233 228 227 238 241 237 238 236 238 241 240 245 254 264 262 273 280 278 274 273 283 295 301 304 308 308 308 311 301 301 300 302
247 241 236 242 246 241 239 241 242 237 235 239 239 238 247 249 252 249 245 242 246 252 248 244 249 270 276 277 274 272 284 288 295 298 301 299 294 297 294 296 296 294 297
245 231 230 236 247 248 244 245 251 250 244 237 241 240 248 252 253 261 264 250 250 243 247 253 261 266 268 266 274 287 294 300 304 301 299 302 297 296 300 299 298 294 298
254 246 246 250 247 246 252 256 254 248 242 241 239 241 241 246 252 254 253 248 242 235 240 248 248 252 264 273 281 286 291 292 293 294 295 297 296 296 296 296 292 292 287
253 246 251 258 259 262 268 271 265 256 250 240 239 240 241 244 250 246 240 239 240 235 227 233 249 263 273 279 286 295 300 300 297 295 296 296 293 291 293 293 290 282 279
265 259 264 268 264 263 266 259 257 259 256 251 251 254 251 244 246 247 247 242 230 229 245 271 283 288 287 289 295 302 304 301 298 298 296 293 295 297 296 295 292 290 289
263 264 268 267 240 239 257 265 258 267 255 258 255 252 252 246 240 244 243 237 230 247 273 284 289 288 283 291 301 302 304 300 299 297 294 294 296 297 297 294 290 288 288
253 259 266 259 254 237 249 263 259 257 261 266 259 257 254 245 237 235 236 232 246 264 274 275 280 285 290 294 301 304 305 299 299 296 292 294 301 301 300 298 296 292 285
246 253 266 260 253 262 257 257 265 265 263 259 260 271 248 231 221 227 233 244 262 271 283 286 285 287 289 290 294 307 311 300 296 293 291 295 300 299 298 297 294 286 279
247 256 252 259 259 269 265 267 263 279 260 262 254 250 254 254 246 251 252 262 269 277 286 288 290 291 288 284 296 303 316 305 297 294 293 293 297 301 302 298 293 289 290
253 248 254 252 255 267 262 270 268 275 251 263 261 255 240 243 250 253 261 271 271 276 284 285 289 284 283 284 289 300 308 309 303 301 297 296 299 303 305 303 297 293 290
259 252 253 258 259 259 253 266 260 273 269 264 260 258 260 248 256 262 267 275 284 286 284 288 291 283 281 288 290 297 300 302 300 301 304 304 303 302 301 300 297 297 293
261 259 252 252 253 263 258 265 258 255 258 259 258 257 258 265 257 266 274 280 283 284 288 290 288 290 289 292 289 296 291 295 296 299 302 302 299 295 290 290 293 294 294
275 271 264 262 257 254 262 253 258 259 249 247 251 258 262 266 268 271 281 281 278 281 289 287 285 289 290 290 289 293 298 293 293 296 299 298 296 292 284 280 285 290 287
299 272 264 262 261 247 246 231 253 251 248 255 262 265 261 266 275 282 282 279 276 277 287 295 291 287 284 286 289 293 292 295 297 294 295 294 295 284 276 285 293 292 281
301 292 280 262 255 261 259 253 254 252 251 256 260 264 272 270 277 279 282 283 281 286 285 290 296 294 290 290 291 292 292 293 290 289 288 285 290 289 280 281 291 295 291
Height
3162 3163 3164 3163 3164 3167 3167 3169 3167 3165 3168 3168 3167 3168 3169 3170 3171 3172 3173 3174 3174 3175 3175 3175 3176 3177 3176 3177 3177 3179 3178 3179 3178 3177 3176 3176 3175 3174 3172 3172 3172 3171 3169
3157 3159 3160 3161 3162 3163 3162 3164 3164 3165 3165 3164 3163 3164 3165 3166 3168 3169 3169 3170 3170 3170 3171 3171 3171 3171 3171 3172 3174 3175 3175 3176 3174 3173 3172 3170 3170 3169 3169 3167 3167 3167 3165
3152 3153 3154 3156 3157 3157 3156 3158 3159 3160 3160 3160 3160 3162 3163 3163 3165 3165 3166 3167 3167 3167 3168 3167 3167 3167 3168 3170 3170 3171 3171 3171 3171 3170 3168 3166 3166 3165 3165 3163 3162 3162 3161
3147 3148 3149 3150 3150 3152 3151 3153 3154 3155 3156 3156 3157 3159 3159 3160 3161 3162 3163 3164 3164 3164 3164 3164 3164 3165 3165 3167 3167 3167 3166 3167 3167 3167 3165 3164 3163 3163 3162 3161 3161 3160 3159
3141 3142 3143 3145 3148 3148 3147 3148 3149 3151 3151 3153 3154 3155 3156 3157 3157 3159 3159 3160 3160 3161 3161 3161 3160 3161 3160 3162 3163 3163 3163 3164 3164 3162 3161 3162 3163 3163 3161 3160 3158 3157 3156
3138 3139 3139 3140 3142 3144 3145 3145 3146 3148 3149 3150 3151 3152 3153 3153 3153 3155 3156 3156 3156 3157 3157 3157 3157 3157 3158 3159 3160 3160 3159 3160 3158 3158 3160 3160 3159 3159 3158 3157 3156 3154 3153
3134 3137 3137 3138 3139 3140 3142 3144 3144 3145 3145 3146 3147 3148 3149 3149 3149 3151 3152 3152 3152 3154 3153 3153 3154 3155 3156 3154 3154 3155 3155 3155 3155 3156 3155 3154 3155 3153 3153 3152 3151 3149 3148
3130 3132 3134 3135 3137 3138 3140 3141 3141 3141 3142 3143 3145 3145 3145 3146 3147 3148 3149 3149 3149 3150 3151 3151 3150 3150 3150 3150 3151 3151 3151 3151 3151 3150 3150 3150 3150 3150 3148 3147 3146 3144 3142
3125 3128 3131 3131 3133 3135 3135 3137 3138 3138 3138 3140 3140 3140 3141 3142 3143 3145 3145 3145 3146 3146 3145 3145 3146 3146 3147 3147 3148 3148 3148 3147 3147 3147 3147 3147 3147 3146 3144 3142 3141 3138 3136
3128 3126 3127 3127 3129 3130 3131 3132 3133 3133 3134 3135 3135 3136 3138 3139 3140 3141 3141 3140 3141 3142 3142 3142 3142 3143 3144 3145 3145 3145 3144 3143 3143 3143 3143 3143 3142 3141 3139 3137 3135 3133 3131
3124 3123 3124 3124 3125 3127 3127 3128 3129 3129 3129 3130 3132 3133 3134 3134 3135 3136 3137 3137 3137 3137 3138 3140 3140 3140 3141 3141 3142 3142 3142 3141 3141 3140 3139 3138 3137 3135 3132 3129 3126 3126 3125
3119 3119 3119 3121 3122 3122 3123 3123 3124 3124 3124 3125 3127 3128 3129 3130 3131 3132 3133 3133 3133 3134 3135 3137 3138 3138 3138 3138 3139 3139 3139 3138 3138 3137 3136 3135 3132 3131 3129 3125 3121 3118 3116
3116 3116 3117 3117 3118 3118 3119 3119 3119 3120 3122 3123 3124 3125 3125 3126 3127 3127 3128 3129 3130 3132 3132 3133 3134 3134 3135 3135 3135 3134 3133 3132 3131 3129 3128 3125 3123 3120 3117 3115 3111 3109 3106
3112 3113 3113 3113 3114 3114 3115 3115 3116 3117 3118 3118 3120 3121 3123 3123 3123 3123 3124 3126 3127 3129 3129 3130 3131 3131 3131 3131 3130 3129 3128 3126 3123 3121 3118 3116 3114 3111 3108 3105 3102 3102 3098
3110 3110 3110 3110 3111 3111 3112 3113 3113 3114 3114 3115 3117 3119 3120 3121 3121 3120 3121 3122 3124 3125 3126 3127 3127 3127 3126 3125 3124 3122 3118 3115 3112 3111 3108 3106 3103 3100 3097 3095 3092 3091 3088
3107 3107 3107 3107 3107 3108 3108 3109 3110 3111 3111 3112 3112 3112 3113 3114 3115 3116 3117 3118 3119 3121 3121 3121 3120 3120 3119 3118 3116 3114 3110 3105 3102 3100 3098 3095 3092 3089 3086 3084 3081 3079 3075
3104 3104 3105 3106 3107 3107 3107 3107 3107 3106 3106 3107 3107 3108 3108 3110 3110 3111 3112 3113 3114 3114 3114 3114 3114 3113 3111 3109 3107 3105 3102 3098 3095 3092 3090 3087 3084 3081 3078 3075 3072 3069 3065
3100 3101 3101 3102 3102 3104 3105 3105 3104 3104 3103 3102 3102 3102 3102 3104 3104 3105 3106 3108 3108 3108 3108 3108 3107 3105 3104 3102 3099 3096 3093 3089 3086 3083 3081 3078 3075 3072 3069 3066 3062 3059 3056
3095 3096 3096 3097 3098 3099 3099 3100 3099 3099 3098 3099 3100 3097 3098 3098 3100 3101 3102 3102 3103 3103 3102 3100 3099 3097 3095 3093 3091 3088 3085 3081 3077 3074 3072 3070 3067 3063 3059 3056 3052 3049 3047
3090 3091 3092 3092 3092 3093 3093 3093 3093 3093 3093 3094 3095 3096 3096 3094 3094 3095 3096 3096 3095 3095 3094 3092 3090 3087 3086 3084 3082 3079 3075 3069 3067 3065 3063 3059 3056 3053 3049 3045 3042 3040 3036
3084 3085 3085 3086 3087 3086 3086 3085 3085 3085 3086 3088 3089 3089 3088 3087 3087 3088 3089 3087 3087 3087 3085 3083 3081 3076 3075 3074 3073 3069 3066 3062 3057 3055 3052 3049 3045 3041 3038 3034 3031 3029 3026
3078 3080 3081 3078 3078 3080 3080 3081 3080 3080 3082 3084 3082 3082 3079 3080 3080 3080 3080 3080 3078 3076 3074 3072 3070 3068 3065 3063 3061 3059 3056 3052 3049 3045 3042 3038 3035 3031 3025 3022 3020 3016 3014
3073 3073 3072 3072 3072 3070 3073 3073 3073 3077 3077 3077 3076 3076 3075 3072 3073 3073 3072 3070 3068 3066 3064 3062 3060 3059 3055 3054 3051 3048 3045 3041 3038 3035 3031 3028 3025 3021 3018 3012 3009 3005 3002
3069 3068 3067 3068 3069 3070 3067 3066 3069 3068 3067 3070 3070 3071 3070 3070 3069 3068 3065 3063 3060 3057 3054 3053 3051 3048 3046 3042 3037 3035 3032 3029 3026 3022 3019 3016 3012 3008 3004 3004 3000 2996 2992
3061 3061 3061 3060 3059 3059 3057 3059 3061 3061 3063 3064 3064 3063 3063 3060 3059 3058 3056 3054 3051 3047 3045 3043 3040 3037 3034 3029 3027 3023 3017 3014 3012 3008 3005 3001 2999 2996 2994 2989 2986 2983 2982
3055 3053 3051 3051 3052 3052 3051 3053 3055 3055 3056 3057 3057 3056 3054 3053 3051 3049 3047 3043 3040 3037 3035 3032 3029 3026 3023 3019 3015 3012 3006 3001 2997 2993 2989 2986 2984 2983 2981 2979 2977 2976 2974